RH
5 5 5 6 6 9 10 9 8 7 7 6 6 7 6 5 6 7 8 13 23 22 17 20 18 20 27 29 27 26 30 31 35 42 42 50 50 47 49 51 51 50 53 54 50 48 48 49 48 47 47 45 44 43 41 39 39 41 40 38 34 31 33 34 34 32 33 33 33 35 36 38 41 44 45 46 46 45 45 43 40 37 36 37 35 33 36 41 40 35 31 24 22 22 22 24 23
5 6 6 6 8 10 10 8 7 8 7 7 7 7 6 6 4 7 8 12 22 24 20 21 22 25 28 28 28 27 30 34 39 44 49 53 50 50 49 49 49 48 51 51 49 49 50 52 50 48 48 46 45 44 41 41 41 42 41 39 38 36 36 36 35 36 36 37 36 37 38 40 42 43 45 48 50 48 46 45 40 32 30 34 34 31 31 36 38 35 32 25 23 24 26 30 29
7 7 8 8 9 10 9 8 7 7 8 7 8 8 7 7 7 10 10 11 20 25 25 25 26 28 28 31 30 31 33 35 41 46 49 49 47 48 46 48 48 48 51 51 50 51 53 55 53 50 48 47 46 44 42 43 42 42 41 40 41 40 40 38 36 37 39 39 40 40 40 40 41 41 41 45 48 48 47 48 45 38 32 31 33 31 28 32 36 37 35 28 25 27 28 31 31
8 9 10 11 9 9 9 9 8 7 8 7 8 13 12 12 14 13 11 12 20 26 28 29 29 30 32 38 37 36 39 39 44 47 47 44 45 47 47 48 48 49 51 51 53 56 59 58 56 52 50 48 47 45 43 43 43 43 42 41 43 41 41 41 38 37 37 39 40 40 40 40 41 40 38 39 44 49 51 51 49 45 40 37 36 33 28 29 36 43 43 33 28 28 27 29 29
10 10 11 11 11 10 10 11 10 8 9 7 9 19 19 18 16 11 12 15 19 25 29 31 33 34 34 38 38 40 44 46 46 45 44 43 46 49 48 49 49 49 49 51 54 58 62 60 60 57 52 50 48 46 43 43 45 44 42 43 44 42 42 42 41 39 38 39 40 40 40 41 43 42 38 38 42 48 54 54 51 47 42 44 45 39 31 27 32 41 47 39 30 29 27 27 26
11 12 11 11 12 11 10 10 9 9 9 7 10 20 23 19 15 12 14 15 17 23 29 33 36 36 35 37 40 42 44 46 44 42 45 44 46 50 50 50 51 49 47 51 56 58 60 60 61 60 56 53 51 48 44 44 45 44 42 44 45 44 43 43 43 40 40 39 39 41 42 42 43 42 40 41 43 47 53 58 56 49 42 43 48 49 40 29 26 32 44 42 32 29 25 24 24
12 12 11 11 11 10 11 10 9 10 9 9 12 19 24 19 17 18 17 16 18 22 29 35 35 36 38 39 41 44 44 44 43 42 47 47 49 52 52 52 53 49 44 48 54 56 58 58 59 59 57 55 54 51 48 48 46 44 44 45 46 46 45 43 41 40 40 40 41 41 41 42 42 43 43 44 45 46 50 58 60 55 49 45 46 51 47 36 27 26 38 41 32 28 24 23 25
12 12 10 11 11 11 11 11 11 11 10 9 11 16 21 20 21 23 21 22 22 24 32 35 33 37 42 39 40 46 46 45 45 43 47 49 52 54 53 55 54 49 46 47 50 55 58 57 57 57 57 54 54 53 51 51 49 47 48 48 48 47 46 42 40 39 39 39 41 42 41 42 43 44 44 44 45 47 51 56 59 58 57 54 48 47 50 45 34 26 30 36 33 26 23 23 26
12 12 10 10 12 12 10 11 11 11 10 9 11 13 15 17 19 23 24 24 24 28 35 35 34 38 41 40 42 46 47 47 47 45 47 50 53 54 53 55 54 50 49 48 48 54 56 56 57 57 56 52 52 53 49 49 50 51 50 51 51 48 45 42 42 39 37 37 39 41 44 44 45 44 43 44 45 47 53 57 57 57 59 60 55 46 48 52 45 35 29 31 31 24 21 22 23
11 12 11 11 11 11 10 10 11 10 10 9 11 12 13 15 16 19 21 22 25 31 37 34 33 36 37 40 44 48 47 46 46 45 47 49 52 54 53 54 54 52 53 51 48 51 55 56 56 55 54 52 51 52 49 49 49 49 51 53 52 47 44 43 41 37 34 35 37 40 44 46 46 44 44 46 46 48 53 58 58 58 58 60 60 49 45 54 55 45 33 29 29 24 20 21 22
12 11 11 11 11 11 10 11 11 10 10 9 10 11 11 13 16 17 17 18 22 30 35 32 33 35 35 39 45 49 47 44 44 44 45 47 50 51 53 53 55 56 57 55 49 49 53 55 55 54 52 51 52 51 49 49 47 47 50 52 49 45 43 41 38 36 35 36 37 40 42 46 47 44 46 47 48 51 53 56 56 55 56 60 62 53 44 49 56 51 38 29 29 26 21 20 23
13 12 10 11 11 11 11 11 11 10 10 9 10 10 10 10 14 16 17 18 20 27 31 33 35 37 37 39 43 45 45 44 43 45 46 46 48 51 52 54 56 57 57 55 51 48 51 53 52 52 51 51 52 49 48 48 47 49 51 49 48 46 44 40 39 37 38 40 39 40 40 43 45 45 49 50 50 50 48 49 51 51 53 59 61 55 47 45 51 54 43 31 30 29 22 17 21
13 14 11 11 11 12 12 11 10 10 10 10 10 11 10 9 11 14 16 17 19 25 30 32 34 38 41 41 43 45 44 43 43 46 47 47 49 50 51 54 57 57 55 54 53 49 51 54 53 51 50 51 52 50 49 48 49 50 50 49 49 50 46 41 43 41 38 41 40 38 40 43 45 48 51 51 50 47 45 47 50 50 51 59 59 54 52 46 43 52 50 34 30 31 24 18 17
13 13 12 12 12 12 11 11 11 11 11 12 11 11 10 9 10 12 15 16 17 23 30 34 35 40 43 40 41 45 44 42 44 47 48 47 49 48 49 55 56 57 55 54 54 52 52 54 52 52 52 53 54 52 50 50 52 52 49 47 50 54 51 44 43 39 35 39 40 39 42 45 45 45 46 48 49 46 47 50 51 51 53 59 58 53 54 54 46 48 52 38 31 32 24 20 18
13 13 13 13 13 12 11 12 12 11 13 13 11 11 10 10 11 11 13 16 18 24 32 37 37 39 41 38 40 45 45 43 45 47 48 47 46 45 49 54 54 57 56 52 54 53 53 53 50 50 51 53 53 51 49 50 52 55 53 48 50 57 58 51 43 36 35 37 40 40 42 45 46 45 45 48 50 46 46 50 53 51 53 57 58 56 55 62 59 49 52 42 31 33 25 20 20
13 13 14 14 13 13 13 13 12 12 15 14 12 12 11 12 12 12 13 15 19 24 29 35 38 38 39 41 42 46 47 46 46 48 47 46 46 45 49 52 51 55 55 51 52 54 51 50 46 43 47 50 50 49 47 49 51 52 53 52 53 55 53 53 48 39 38 38 39 41 43 47 48 48 50 53 52 49 45 48 53 50 50 54 58 62 58 60 64 54 53 47 32 33 28 21 20
12 13 15 15 14 14 13 13 12 14 16 13 13 13 12 13 14 14 13 15 19 22 23 32 39 39 40 42 43 47 50 50 50 50 48 47 46 46 48 49 49 51 50 48 47 47 46 46 43 39 44 49 49 50 48 52 54 52 53 53 55 56 51 52 50 44 42 40 38 40 45 49 49 52 56 56 54 53 49 48 52 51 49 52 56 65 62 58 63 60 57 50 35 32 29 23 21
13 15 16 15 15 14 14 13 14 15 15 13 14 14 13 14 16 16 15 13 17 21 22 31 39 39 42 43 44 48 51 52 53 52 49 46 45 44 45 46 46 46 44 43 41 40 42 44 41 37 39 43 44 47 47 50 53 52 54 53 52 53 51 51 49 46 46 44 40 40 45 51 51 54 57 54 55 56 55 54 54 54 53 51 53 59 63 59 59 61 62 53 38 32 30 26 23
13 15 16 15 15 15 14 13 14 15 15 14 14 14 14 15 18 18 17 15 16 20 22 27 34 38 43 42 46 50 51 53 53 52 49 46 47 43 42 42 42 41 40 40 38 37 39 38 37 36 34 36 38 40 41 42 45 48 50 49 48 46 45 48 48 47 49 48 47 46 46 51 51 53 53 49 52 54 56 58 56 55 55 52 50 52 55 56 57 61 63 58 44 34 31 30 28
14 15 15 14 14 14 13 13 14 15 15 14 14 14 15 16 19 19 21 21 16 18 22 24 28 34 42 42 46 52 52 53 52 50 47 47 48 43 40 39 39 39 40 40 39 37 39 38 38 37 34 34 36 37 38 38 40 43 44 44 44 42 42 46 46 45 46 48 51 48 45 48 48 49 47 43 46 49 53 58 58 56 55 53 49 45 46 50 56 61 63 58 48 38 34 32 30
14 13 14 14 14 13 13 14 14 15 15 14 15 14 15 18 21 21 23 24 18 20 24 23 25 33 44 48 49 55 54 52 53 50 47 47 47 44 40 39 38 40 41 42 41 40 42 44 43 40 35 35 38 38 38 38 39 40 40 41 42 41 43 46 43 42 44 44 46 44 44 46 43 43 43 41 44 48 52 57 60 58 57 56 48 44 49 52 54 60 63 60 54 46 40 34 30
13 12 13 14 14 13 13 14 14 14 15 15 14 15 16 18 22 24 24 25 24 29 30 26 31 38 49 56 55 57 56 53 54 51 48 49 46 45 42 40 41 41 42 43 43 41 42 45 44 41 36 36 40 39 37 38 39 41 41 38 37 39 42 43 41 41 43 39 41 44 45 43 40 41 41 40 46 48 49 55 59 59 59 59 52 50 53 53 57 62 60 58 60 57 46 35 30
12 12 12 13 13 13 13 13 13 14 15 15 15 16 17 20 25 26 27 29 30 33 34 35 40 43 51 58 55 56 57 55 56 52 51 52 47 44 44 43 43 41 40 43 41 37 38 41 40 37 35 36 37 36 37 38 37 42 44 38 35 37 38 39 39 40 41 37 39 42 42 41 40 40 40 40 45 47 47 52 57 58 60 61 58 55 51 50 58 66 62 54 57 61 54 40 30
11 13 13 13 13 12 13 13 14 15 16 15 16 17 19 22 27 29 31 31 29 30 35 44 48 48 51 54 53 55 56 56 57 54 51 50 46 45 46 45 43 40 38 38 36 33 34 35 34 35 34 32 31 33 38 39 38 39 39 38 37 37 36 38 40 40 41 38 38 39 39 42 42 39 39 41 43 46 47 51 55 56 59 62 61 56 50 50 53 60 64 57 53 55 57 50 35
11 11 12 13 12 13 13 13 14 16 16 17 17 19 20 22 25 29 32 31 28 31 38 45 48 51 53 51 54 56 55 55 55 53 50 48 47 48 47 43 38 36 35 32 31 33 35 31 30 33 31 28 27 28 34 36 38 36 33 37 40 40 37 37 37 37 39 38 38 41 41 42 43 39 40 42 41 44 47 51 55 55 58 62 62 57 52 53 54 58 62 62 62 58 56 53 43
12 11 12 12 13 13 13 13 15 17 17 18 18 20 20 21 23 27 31 31 30 33 39 44 45 50 54 53 56 58 55 53 51 52 50 49 49 49 44 38 33 29 29 27 27 32 33 29 30 32 30 28 27 25 27 27 28 31 32 35 37 37 37 33 32 34 39 41 39 41 43 43 43 42 44 43 39 42 49 55 59 59 61 63 62 60 57 57 58 61 63 64 68 67 61 55 50
13 12 12 12 13 13 13 13 16 18 18 18 19 20 20 20 24 27 31 33 33 33 37 43 44 47 51 52 56 57 54 51 51 52 51 51 49 46 39 33 30 26 24 23 25 26 25 28 31 31 27 24 26 27 26 23 22 26 28 30 35 38 36 32 33 35 37 42 40 39 41 41 41 42 43 41 40 45 52 56 60 64 67 66 65 64 61 59 59 62 64 65 67 70 70 65 59
13 12 12 12 13 13 12 14 17 18 18 18 18 19 20 20 22 24 28 32 34 34 35 41 44 46 49 51 54 54 51 49 51 53 52 48 44 39 33 28 26 23 21 21 24 22 19 26 29 28 24 18 24 30 28 26 25 26 26 25 33 39 35 34 37 36 34 38 37 35 34 33 35 39 38 39 44 49 50 52 57 66 69 67 66 67 63 61 60 61 64 65 66 68 71 68 64
12 13 12 12 12 12 13 15 17 18 18 18 18 18 20 20 20 22 25 29 32 33 34 38 43 45 47 49 50 49 49 48 49 51 47 40 37 32 28 24 20 21 22 20 21 20 19 24 24 24 25 20 24 29 28 29 29 29 27 25 31 35 32 34 39 36 34 37 34 32 33 32 32 35 35 38 43 44 44 48 55 66 69 67 68 69 67 66 64 63 65 67 67 68 69 67 64
12 12 12 13 13 14 14 15 17 18 18 18 17 20 24 21 20 22 25 27 29 32 33 35 42 46 45 45 47 47 48 49 49 47 39 35 34 29 24 21 19 22 24 21 20 20 20 22 21 22 26 24 24 23 24 28 28 29 29 25 27 32 34 34 34 33 35 38 36 36 39 41 40 38 36 39 40 40 40 43 51 62 66 65 67 65 65 68 68 65 67 70 69 70 73 72 70
13 12 12 14 16 16 15 16 18 18 18 18 17 21 29 23 19 22 25 27 28 30 31 33 39 44 43 44 46 47 48 49 47 42 37 34 32 27 24 21 20 23 24 21 20 21 21 22 22 23 25 26 23 18 19 24 23 27 33 31 27 29 36 38 35 32 34 38 40 43 45 46 49 46 42 40 38 38 41 41 45 56 63 63 62 60 60 65 69 66 65 69 70 71 74 74 77
13 14 15 14 16 18 17 16 19 19 18 19 16 21 31 25 19 23 25 26 27 28 31 32 36 38 40 43 45 46 47 46 43 41 38 34 30 27 24 22 21 22 22 21 21 22 22 23 23 23 24 25 22 18 18 20 19 21 29 33 28 27 33 37 37 34 36 40 44 49 50 48 50 48 45 42 37 37 42 43 43 49 56 59 60 59 58 62 68 68 64 65 67 69 71 73 80
14 16 19 17 16 18 18 17 19 20 18 19 17 22 32 26 18 22 25 26 27 27 29 32 35 36 38 41 43 44 45 43 42 40 37 32 28 26 25 24 23 22 22 21 22 23 24 24 24 23 23 23 23 20 18 17 18 19 20 24 25 26 29 32 36 35 35 38 41 45 48 45 45 46 46 43 39 38 42 44 45 47 50 53 57 57 57 60 64 69 66 61 62 63 64 69 77
18 19 21 19 17 18 20 19 19 19 19 20 18 20 26 23 18 21 23 25 26 25 27 30 33 35 35 38 42 43 41 40 39 38 34 31 27 26 25 24 24 24 24 23 24 25 26 26 25 23 22 22 22 21 19 18 18 18 19 21 23 25 26 27 32 34 32 32 33 37 38 38 38 41 43 43 41 40 41 44 45 46 46 47 53 56 56 58 61 67 69 63 59 59 60 63 70
21 21 22 20 18 18 21 22 21 20 19 21 20 20 22 21 20 21 22 24 26 26 26 28 31 32 33 34 36 37 35 35 36 35 33 30 27 25 25 24 24 25 26 26 27 27 28 28 26 25 23 22 23 22 21 20 18 18 20 23 25 26 25 25 28 31 32 29 29 32 32 33 34 36 39 41 41 41 42 44 43 45 46 46 50 55 55 57 60 65 71 69 64 65 68 68 70
21 22 22 21 20 19 21 22 22 20 20 21 21 23 23 21 20 20 22 24 26 27 27 29 30 31 32 31 31 31 31 32 33 34 33 30 28 26 25 25 25 26 28 29 31 31 31 31 29 27 25 23 24 23 24 26 26 25 24 26 28 30 30 28 28 30 31 28 25 26 27 27 27 27 28 29 31 35 40 43 42 43 48 50 51 52 54 56 59 63 69 72 70 71 76 78 78
20 21 20 21 20 20 22 22 21 20 21 24 23 23 23 22 21 20 21 23 25 27 28 30 30 30 31 30 29 29 30 32 33 34 34 32 30 28 27 28 28 28 30 31 33 35 35 36 33 30 27 25 25 25 27 31 33 31 28 27 27 28 28 27 26 24 24 22 19 19 19 18 18 17 18 18 19 24 30 36 40 42 47 51 52 52 53 56 57 61 65 69 71 73 77 81 83
20 21 21 22 21 22 25 23 21 21 22 26 25 22 23 24 21 20 20 21 22 25 27 28 29 29 30 29 28 29 32 34 33 34 35 33 32 31 30 30 31 31 32 33 34 35 38 39 37 33 29 26 27 27 27 30 33 33 30 27 26 26 25 26 25 19 15 13 12 12 12 12 11 12 12 14 17 19 21 27 32 36 41 47 50 51 54 57 58 61 65 69 70 69 72 77 81
21 20 21 23 22 24 26 23 22 22 22 26 26 22 24 26 23 21 21 21 21 24 26 26 27 27 27 27 28 28 31 34 35 36 36 35 35 34 33 33 34 35 36 36 36 36 39 40 39 36 32 29 30 29 29 30 30 29 27 24 23 23 21 21 21 15 12 12 11 11 11 10 13 16 18 17 21 23 24 24 23 24 30 36 42 47 51 55 57 61 64 67 67 68 74 78 80
21 20 22 25 25 24 26 28 27 24 23 26 26 21 22 25 23 21 21 22 24 25 25 26 26 25 25 26 28 29 31 34 36 38 39 39 38 38 37 37 36 37 38 38 38 38 39 42 41 38 35 33 32 32 32 31 27 24 22 18 17 18 15 14 14 13 12 13 12 12 11 11 15 21 24 25 27 26 27 27 23 20 20 24 32 39 42 43 45 49 53 57 61 67 72 74 78
23 22 22 26 29 25 25 32 32 27 25 25 23 21 21 23 24 22 21 21 23 23 23 24 24 24 24 25 28 30 32 35 38 40 41 41 41 41 41 40 38 38 39 39 39 39 40 43 43 40 38 36 35 37 36 31 26 24 21 16 15 16 14 14 15 15 14 14 14 13 12 12 14 19 24 26 28 28 27 28 27 24 20 21 29 35 36 34 33 36 43 50 55 59 62 63 71
28 23 21 24 28 26 24 29 29 26 27 28 25 21 22 25 26 25 23 21 23 23 22 23 23 23 24 25 27 29 33 36 38 40 41 42 42 42 43 43 42 41 41 40 39 40 42 43 44 43 40 37 38 42 41 31 25 26 23 18 18 18 17 20 21 19 16 17 16 14 14 14 14 18 23 25 28 29 27 27 28 27 24 24 29 33 32 32 33 36 40 44 47 49 51 52 58
29 27 23 22 23 25 26 26 26 25 28 31 28 22 24 27 28 28 25 22 24 26 24 24 24 25 25 25 26 28 31 35 37 39 41 43 44 44 44 43 42 43 43 42 42 42 43 42 44 44 40 38 41 45 43 32 25 27 24 19 19 21 23 24 22 18 17 17 16 15 15 14 14 16 19 22 28 30 28 28 28 27 27 27 27 29 30 31 33 35 36 36 38 39 38 39 47
32 33 28 24 26 28 29 29 28 27 28 30 28 24 24 25 28 31 27 23 25 26 27 26 26 27 28 28 29 29 30 32 35 37 39 42 45 44 43 42 41 43 43 43 44 44 44 42 44 44 40 39 43 45 43 32 26 27 25 20 19 22 25 22 18 17 17 17 16 16 15 14 14 15 15 18 23 26 26 26 25 24 25 25 25 26 25 25 26 27 26 26 28 30 30 32 38
32 34 30 29 32 33 33 31 29 30 30 28 28 27 26 24 27 31 28 24 27 29 29 28 27 28 30 31 32 32 32 32 33 35 38 41 45 44 43 42 41 41 41 42 45 47 46 44 45 43 39 40 42 44 41 31 25 26 25 21 19 22 24 21 19 19 18 17 16 15 14 13 13 13 14 14 15 17 16 16 16 16 17 19 21 19 16 16 17 18 17 16 18 20 23 27 30
34 33 30 31 32 33 34 32 31 33 32 27 30 33 30 25 27 31 29 26 29 32 30 29 28 29 30 32 34 35 34 34 33 33 35 38 42 44 44 42 40 39 39 40 44 49 49 48 46 43 38 35 37 39 36 28 26 26 25 21 18 20 21 20 21 20 18 18 16 14 14 14 13 13 13 12 13 13 13 13 13 13 13 14 15 14 13 13 12 12 12 12 13 13 14 17 19
34 33 33 33 33 33 33 32 30 32 31 29 33 35 30 25 26 29 31 30 31 32 31 30 29 29 30 32 33 33 33 33 32 31 31 31 34 39 42 42 39 38 38 38 41 47 51 50 45 40 34 28 31 36 34 30 27 25 24 23 19 18 19 19 19 19 18 18 16 16 18 19 16 14 13 12 12 12 13 13 13 13 13 13 13 13 13 14 13 13 13 13 13 13 12 12 12
33 34 35 36 36 36 34 32 32 29 29 32 32 31 28 25 26 29 30 27 27 30 31 31 30 30 30 32 32 32 32 32 31 30 30 29 31 34 37 40 39 38 38 40 40 44 49 48 43 40 35 31 34 38 35 31 28 24 25 25 21 19 19 18 17 17 17 17 17 18 20 22 19 16 15 14 13 12 12 13 13 13 13 12 13 14 14 14 14 15 15 15 15 15 15 14 14
31 32 35 35 34 39 38 34 35 31 30 35 32 29 29 26 28 31 29 25 24 28 29 29 29 29 30 31 31 31 31 32 30 30 30 28 30 34 34 37 40 39 40 42 41 42 46 46 44 44 43 42 42 42 39 33 27 24 24 25 24 21 20 18 18 19 19 19 21 20 19 22 22 19 17 15 15 14 13 13 13 12 12 12 12 13 13 14 14 15 15 15 16 15 16 16 16
31 31 34 34 33 40 39 32 33 31 31 36 33 31 30 27 30 31 27 25 24 25 26 27 27 28 28 29 29 30 31 32 32 32 31 28 29 34 35 36 40 40 40 40 39 40 44 45 47 49 47 47 47 46 43 34 28 26 25 25 26 25 23 20 20 22 22 24 27 23 22 25 25 23 20 16 15 16 15 14 14 13 13 12 12 12 13 13 13 14 14 14 14 14 15 15 15
34 32 32 33 33 37 36 32 34 34 36 40 38 34 31 30 35 33 28 28 26 25 26 27 28 28 28 29 29 30 32 35 37 38 38 35 33 37 39 39 43 44 42 39 38 41 42 43 48 49 45 46 48 45 40 33 30 30 29 28 29 29 29 25 24 24 23 26 28 25 25 27 28 28 26 20 18 17 16 16 15 15 14 13 13 13 13 14 13 13 14 14 13 14 14 13 13
30 30 29 30 30 32 33 34 35 34 36 39 36 33 30 31 35 33 31 32 30 29 29 29 30 29 30 32 31 32 35 38 44 48 49 47 42 42 43 43 47 48 46 43 41 41 39 40 46 46 44 46 45 41 37 35 34 34 33 33 34 33 33 32 31 29 26 26 28 28 28 28 30 31 29 25 22 21 19 18 17 16 16 15 15 14 14 14 14 14 15 14 14 14 14 14 14
28 28 27 27 27 29 33 36 36 34 33 32 30 31 30 31 32 30 30 32 30 31 31 31 32 31 31 32 32 33 35 41 49 52 54 56 54 50 47 47 47 47 48 47 44 42 40 41 45 46 45 46 45 44 44 40 37 37 37 39 41 40 39 39 38 36 32 30 31 31 31 31 32 33 31 27 26 25 24 22 21 19 18 17 16 16 16 15 16 16 16 16 16 15 15 15 14
25 27 28 29 28 29 32 34 34 34 34 31 30 33 31 30 34 34 33 31 30 30 30 31 32 31 32 32 33 34 35 41 50 53 54 56 58 56 54 52 50 50 52 50 46 44 42 44 47 49 50 48 48 49 48 43 40 43 48 52 53 52 49 47 45 43 38 33 32 34 34 35 35 35 35 34 32 30 28 27 25 24 22 21 19 18 17 17 17 17 17 17 17 17 17 16 15
23 25 25 27 31 32 36 38 36 35 35 33 31 32 30 27 30 35 35 33 32 31 31 31 32 32 34 34 35 37 38 40 47 53 55 56 57 58 59 58 56 56 57 57 54 52 48 47 48 51 53 51 50 49 47 44 46 51 56 60 59 56 54 53 52 51 48 42 39 39 37 36 36 36 37 37 37 36 34 32 30 30 28 26 25 23 21 20 19 19 19 18 18 18 18 18 17
24 25 24 25 27 29 32 36 36 37 40 40 35 33 31 29 29 33 35 34 34 34 35 34 34 35 37 38 38 40 40 40 43 48 54 57 59 61 62 62 61 59 60 61 61 60 59 57 53 53 56 54 52 50 48 47 51 55 57 57 57 55 56 55 54 55 55 51 46 43 42 41 39 38 38 38 39 40 40 38 36 36 35 34 33 31 29 27 25 24 22 21 20 19 19 19 19
26 26 27 29 29 29 31 31 31 34 37 38 38 35 33 33 34 34 37 37 36 36 37 37 38 39 41 42 42 41 40 40 40 42 47 51 56 60 62 63 63 62 61 61 62 63 66 66 62 60 61 59 56 55 54 53 53 54 55 55 55 55 56 56 54 54 53 52 49 45 44 44 44 44 42 41 41 42 43 44 43 41 41 41 41 40 39 37 35 32 30 27 25 23 21 21 20
26 27 28 29 32 34 36 35 35 36 35 34 36 34 32 34 35 35 37 39 37 35 36 37 39 42 44 45 45 43 41 40 40 40 42 44 47 51 55 58 58 60 62 63 63 64 67 70 69 67 66 65 65 64 62 61 60 57 55 54 54 54 55 54 53 53 53 53 51 50 48 47 47 48 48 46 43 42 42 43 45 46 45 44 45 45 44 44 43 41 39 36 33 29 27 25 23